Location: �clusier
(49.9361°N, 2.7869°E)
Time: 00:37:59
(UTC+00:00)

Spot 2 Rocket - Visible Passes

Search period start: 23 October 2021 00:00
Search period end: 02 November 2021 00:00
Orbit: 758 x 771 km, 98.5° (Epoch: 22 October)

Date Brightness Start Highest point End Pass type
(mag) Time Alt. Az. Time Alt. Az. Time Alt. Az.
23 Oct 5.9 19:35:17 11° NNE 19:35:17 11° NNE 19:35:29 10° NNE visible
23 Oct 6.4 21:15:29 11° NNW 21:15:29 11° NNW 21:15:36 10° NNW visible
24 Oct 6.2 20:38:12 12° N 20:38:12 12° N 20:38:31 10° N visible
25 Oct 6.0 20:00:54 11° N 20:00:54 11° N 20:01:08 10° N visible
27 Oct 6.2 20:26:32 10° N 20:26:32 10° N 20:26:35 10° N visible
